Location: Anankanda
(14.7841°N, 3.0348°W)
Time: 00:28:16
(UTC+00:00)

Cosmos 1602 Rocket - Pass Details

Date: 17 January 2021
Orbit: 604 x 633 km, 82.5° (Epoch: 07 March)

Event Time Altitude Azimuth Distance (km) Brightness Sun altitude
Rises 19:03:05 0° 176° (S) 2,845 7.2 -14.4°
Reaches altitude 10° 19:05:19 10° 173° (S) 1,942 6.2 -15.0°
Maximum altitude 19:09:32 59° 94° (E) 695 3.5 -15.9°
Enters shadow 19:13:19 13° 15° (NNE) 1,769 5.6 -16.8°
